Location: 22
(39.7117°N, 89.5929°W)
Time: 05:37:16
(UTC-05:00)

Vanguard 1 Rocket - Pass Details

Date: 10 February 2023
Orbit: 652 x 4223 km, 34.3° (Epoch: 26 March)

Event Time Altitude Azimuth Distance (km) Brightness Sun altitude
Rises 10:24:09 0° 236° (SW) 3,519 10.5 30.4°
Reaches altitude 10° 10:26:17 10° 230° (SW) 2,806 10.1 30.6°
Maximum altitude 10:32:49 50° 156° (SSE) 1,823 10.7 31.2°
Drops below altitude 10° 10:45:06 10° 87° (E) 5,148 11.6 32.3°
Sets 10:50:31 0° 83° (E) 6,759 12.0 32.7°
